Regional Weather Roundup
Issued by NWS State College, PA

Home | Current Version | Previous Version | Text Only | Print | Product List | Glossary On
Versions: 1 2 3 4 5 6 7 8 9 10 11 12 13 14 15 16 17 18 19 20 21 22 23 24 25 26 27 28 29 30 31 32 33 34 35 36 37 38 39 40 41 42 43 44 45 46 47 48 49 50
000
ASUS41 KCTP 170710
RWRCTP

REGIONAL WEATHER ROUNDUP
NATIONAL WEATHER SERVICE STATE COLLEGE PA
200 AM EST SUN DEC 17 2017

Note: "fair" indicates few or no clouds below 12,000 feet with no
significant weather and/or obstructions to visibility.

* = STATION THAT DOES NOT REPORT PRECIPITATION /E.G. RAIN...SNOW...ETC/
    THUNDER OR FOG.

PAZ002>004-007>009-013>016-020>023-029>032-170800-
WESTERN PENNSYLVANIA

CITY           SKY/WX    TMP DP  RH WIND       PRES   REMARKS
ERIE           CLOUDY    27  25  92 E5        30.19R
MEADVILLE      FOG       23  23 100 CALM      30.14R VSB 1/4
FRANKLIN*      FOG       23  21  93 CALM      30.14R VSB 3/4
NEW CASTLE     FAIR      20  18  92 CALM      30.16R FOG
BEAVER COUNTY  NOT AVBL
BUTLER*        CLOUDY    22  21  96 CALM      30.16R
PITTSBURGH INT CLOUDY    38  27  64 SW6       30.15R
PITTSBURGH     CLEAR     33  23  66 S8        30.15R
INDIANA*       CLEAR     21  19  93 CALM      30.20R
LATROBE        CLEAR     32  25  74 S8        30.18R
WASHINGTON CO* CLEAR     35  25  66 SW3       30.20R
$$

PAZ004>006-010>012-017>019-024>028-033>037-041-042-045-046-049>053-170800-
CENTRAL PENNSYLVANIA

CITY           SKY/WX    TMP DP  RH WIND       PRES   REMARKS
BRADFORD       CLOUDY    28  28 100 CALM      30.10R FOG
DUBOIS         CLOUDY    25  22  88 E3        30.12R FOG
CLEARFIELD     CLOUDY    25  23  92 N5        30.15R
JOHNSTOWN      CLEAR     36  25  64 SW12      30.12R
ALTOONA        CLEAR     30  23  75 S5        30.15R
STATE COLLEGE  CLOUDY    29  26  89 CALM      30.16R
WILLIAMSPORT   CLOUDY    35  26  69 CALM      30.19R
SELINSGROVE    CLOUDY    32  29  88 CALM      30.20R
FT INDIANTOWN  PTCLDY    29  28  99 CALM      30.20R
CAPITAL CITY   CLEAR     28  22  78 CALM      30.20R
HARRISBURG     CLEAR     27  24  89 CALM      30.19R
YORK           CLEAR     21  20  96 CALM      30.19R
$$

PAZ038>040-043-044-047-048-054-055-060>062-067>071-170800-
EASTERN PENNSYLVANIA

CITY           SKY/WX    TMP DP  RH WIND       PRES   REMARKS
SCRANTON       CLOUDY    27  22  81 CALM      30.18R
MOUNT POCONO   CLOUDY    23  21  92 W3        30.11R
ALLENTOWN      CLOUDY    33  25  72 NE3       30.21R
QUAKERTOWN*    CLOUDY    32  27  80 CALM      30.21R
READING        CLOUDY    33  30  88 N3        30.20R
LANCASTER      CLEAR     29  27  92 CALM      30.21R
COATESVILLE    SUNNY     32  25  74 CALM      30.20R
POTTSTOWN      CLOUDY    33  26  75 E3        30.23R
BLUE BELL      CLOUDY    32  28  86 CALM      30.23R
DOYLESTOWN     CLOUDY    33  26  75 CALM      30.20R
WILLOW GROVE   NOT AVBL
NORTH PHILA    CLOUDY    36  27  69 NE6       30.24R
PHILADELPHIA   CLOUDY    36  28  73 W3        30.23R
$$




USA.gov is the U.S. government's official web portal to all federal, state and local government web resources and services.